Location: Neuvy Saint Sepulchre
(46.5953°N, 1.8122°E)
Time: 11:47:31
(UTC+02:00)

ISS - Pass Details

Date: 22 April 2026
Orbit: 415 x 424 km, 51.6° (Epoch: 14 April)

Event Time Altitude Azimuth Distance (km) Brightness Sun altitude
Exits shadow 05:28:27 25° 209° (SSW) 893 -2.6 -13.8°
Maximum altitude 05:30:05 48° 146° (SE) 552 -3.2 -13.6°
Drops below altitude 10° 05:33:22 10° 71° (ENE) 1,504 0.4 -13.1°
Sets 05:35:30 0° 66° (ENE) 2,373 2.0 -12.8°
